Weather History for KBYY - February, 2012

Change the Weather History Date:

Friday, February 3, 2012

  Actual Average (KLBX) Record (KLBX)
Temperature  
Mean Temperature 72 °F -  
Max Temperature 76 °F 60 °F 78 °F (2006)
Min Temperature 69 °F 46 °F 28 °F (2009)
Cooling Degree Days 8    
Growing Degree Days 22 (Base 50)    
Moisture  
Dew Point 71 °F    
Average Humidity 94    
Maximum Humidity 100    
Minimum Humidity 83    
Precipitation  
Precipitation 0.00 in - - ()
Sea Level Pressure  
Sea Level Pressure 29.98 in    
Wind  
Wind Speed 12 mph (SE)    
Max Wind Speed 21 mph    
Max Gust Speed 28 mph    
Visibility 8 miles    
Events      
Averages and records for this station are not official NWS values.
T = Trace of Precipitation, MM = Missing Value Source: NWS Daily Summary

Daily Weather History Graph

Daily Weather History Graph

Search for Another Location

Airport or City:

Trip Planner

Search our weather history database for the weather conditions in past years. The results will help you decide how hot, cold, wet, or windy it might be!

Date:

Astronomy

Feb. 03, 2012 Rise Set
Actual Time 7:11 AM CST 6:03 PM CST
Civil Twilight 6:46 AM CST 6:28 PM CST
Nautical Twilight 6:18 AM CST 6:56 PM CST
Astronomical Twilight 5:50 AM CST 7:24 PM CST
Moon 2:15 PM CST (2/3) 3:37 AM CST (2/3)
Length of Visible Light 11h 41m
Length of Day
10h 52m
Waxing Gibbous, 82% of the Moon is Illuminated
Feb 3
Waxing Gibbous
Feb 7
Full
Feb 14
Last Quarter
Feb 21
New
Feb 29
First Quarter

Hourly Weather History & Observations

Time (CST) Temp. Dew Point Humidity Pressure Visibility Wind Dir Wind Speed Gust Speed Precip Events Conditions
12:15 AM 70.7 °F 70.7 °F 100% 29.99 in 10.0 mi SE 11.5 mph - N/A   Overcast
12:35 AM 71.1 °F 70.9 °F 99% 29.99 in 10.0 mi SE 11.5 mph - N/A   Overcast
12:55 AM 71.1 °F 70.9 °F 99% 29.99 in 10.0 mi SE 11.5 mph 19.6 mph N/A   Overcast
1:15 AM 71.2 °F 70.9 °F 99% 29.99 in 10.0 mi SE 11.5 mph 18.4 mph N/A   Overcast
1:35 AM 71.2 °F 71.1 °F 99% 29.98 in 10.0 mi SE 11.5 mph - N/A   Overcast
1:55 AM 71.6 °F 71.1 °F 98% 29.98 in 10.0 mi SE 10.4 mph - N/A   Overcast
2:15 AM 71.6 °F 71.2 °F 99% 29.98 in 7.0 mi SE 9.2 mph 16.1 mph N/A   Overcast
2:35 AM 71.6 °F 71.2 °F 99% 29.97 in 10.0 mi SE 11.5 mph - N/A   Overcast
2:55 AM 71.6 °F 71.1 °F 98% 29.96 in 10.0 mi SE 12.7 mph 17.3 mph N/A   Overcast
3:15 AM 71.6 °F 71.1 °F 98% 29.96 in 7.0 mi SE 12.7 mph 17.3 mph N/A   Overcast
3:35 AM 71.1 °F 70.9 °F 99% 29.96 in 7.0 mi SE 10.4 mph - N/A   Overcast
3:55 AM 70.9 °F 70.9 °F 100% 29.96 in 5.0 mi SSE 10.4 mph - N/A   Overcast
4:15 AM 70.7 °F 70.7 °F 100% 29.96 in 7.0 mi SE 11.5 mph - N/A   Overcast
4:35 AM 70.7 °F 70.7 °F 100% 29.96 in 7.0 mi SE 10.4 mph - N/A   Overcast
4:55 AM 70.9 °F 70.9 °F 100% 29.96 in 7.0 mi SE 13.8 mph 18.4 mph N/A   Overcast
5:15 AM 71.1 °F 70.9 °F 99% 29.96 in 7.0 mi SSE 10.4 mph 16.1 mph N/A   Overcast
5:35 AM 70.7 °F 70.7 °F 100% 29.96 in 7.0 mi SE 12.7 mph 17.3 mph N/A   Overcast
5:55 AM 70.7 °F 70.7 °F 100% 29.97 in 7.0 mi SSE 10.4 mph - N/A   Overcast
6:15 AM 70.5 °F 70.5 °F 100% 29.98 in 7.0 mi SE 9.2 mph - N/A   Overcast
6:35 AM 70.2 °F 70.2 °F 100% 29.98 in 7.0 mi SE 9.2 mph - N/A   Overcast
6:55 AM 70.2 °F 70.2 °F 100% 29.99 in 7.0 mi SE 10.4 mph - N/A   Overcast
7:15 AM 70.3 °F 70.3 °F 100% 30.01 in 7.0 mi SE 9.2 mph - N/A   Overcast
7:35 AM 70.0 °F 70.0 °F 100% 30.01 in 5.0 mi SSE 9.2 mph 16.1 mph N/A   Overcast
7:55 AM 70.0 °F 70.0 °F 100% 30.02 in 7.0 mi SSE 9.2 mph - N/A   Overcast
8:15 AM 70.2 °F 70.2 °F 100% 30.03 in 5.0 mi SSE 8.1 mph - N/A   Overcast
8:35 AM 70.9 °F 70.7 °F 99% 30.03 in 7.0 mi SE 8.1 mph - N/A   Overcast
8:55 AM 72.0 °F 71.4 °F 98% 30.03 in 7.0 mi SE 11.5 mph - N/A   Mostly Cloudy
9:15 AM 72.5 °F 71.4 °F 96% 30.03 in 7.0 mi SE 11.5 mph 17.3 mph N/A   Overcast
9:35 AM 72.9 °F 71.4 °F 95% 30.03 in 10.0 mi SE 13.8 mph - N/A   Overcast
9:55 AM 73.4 °F 71.4 °F 93% 30.03 in 10.0 mi ESE 11.5 mph - N/A   Overcast
10:15 AM 74.3 °F 71.6 °F 91% 30.03 in 10.0 mi SE 11.5 mph 20.7 mph N/A   Overcast
10:35 AM 74.3 °F 71.8 °F 92% 30.01 in 10.0 mi SE 13.8 mph - N/A   Overcast
10:55 AM 74.8 °F 72.0 °F 91% 29.99 in 10.0 mi ESE 20.7 mph 25.3 mph N/A   Mostly Cloudy
11:15 AM 75.4 °F 72.1 °F 90% 29.98 in 10.0 mi ESE 19.6 mph 27.6 mph N/A   Mostly Cloudy
11:35 AM 75.4 °F 72.3 °F 90% 30.00 in 10.0 mi SE 16.1 mph 20.7 mph N/A   Overcast
11:55 AM 76.3 °F 72.5 °F 88% 30.00 in 10.0 mi SE 11.5 mph 23.0 mph N/A   Overcast
12:15 PM 75.7 °F 71.6 °F 87% 29.99 in 10.0 mi SE 18.4 mph 21.9 mph N/A   Overcast
12:35 PM 75.7 °F 70.7 °F 84% 29.98 in 10.0 mi SE 16.1 mph 20.7 mph N/A   Overcast
12:55 PM 75.2 °F 70.3 °F 85% 29.97 in 7.0 mi SE 15.0 mph 21.9 mph N/A   Overcast
1:15 PM 75.2 °F 70.7 °F 86% 29.96 in 10.0 mi SE 17.3 mph 21.9 mph N/A   Overcast
1:35 PM 75.2 °F 70.7 °F 86% 29.96 in 7.0 mi SSE 13.8 mph 20.7 mph N/A   Overcast
1:55 PM 75.6 °F 70.9 °F 85% 29.95 in 10.0 mi SSE 17.3 mph 21.9 mph N/A   Overcast
2:15 PM 75.7 °F 70.7 °F 84% 29.94 in 10.0 mi SSE 18.4 mph 24.2 mph N/A   Overcast
2:35 PM 75.9 °F 70.5 °F 83% 29.95 in 10.0 mi SE 15.0 mph 23.0 mph N/A   Overcast
2:55 PM 76.3 °F 70.7 °F 83% 29.94 in 7.0 mi SSE 16.1 mph 20.7 mph N/A   Overcast
3:15 PM 75.9 °F 70.3 °F 83% 29.94 in 7.0 mi SSE 12.7 mph - N/A   Overcast
3:35 PM 75.7 °F 70.7 °F 84% 29.94 in 7.0 mi SSE 12.7 mph - N/A   Overcast
3:55 PM 75.2 °F 70.5 °F 85% 29.95 in 10.0 mi SSE 12.7 mph - N/A   Overcast
4:15 PM 74.7 °F 70.5 °F 87% 29.95 in 7.0 mi SSE 11.5 mph - N/A   Overcast
4:35 PM 74.3 °F 70.9 °F 89% 29.95 in 7.0 mi SE 11.5 mph - N/A   Overcast
4:55 PM 74.3 °F 71.1 °F 90% 29.95 in 7.0 mi SE 12.7 mph - N/A   Overcast
5:15 PM 74.3 °F 70.9 °F 89% 29.95 in 10.0 mi SE 12.7 mph 17.3 mph N/A   Overcast
5:35 PM 73.8 °F 71.2 °F 92% 29.95 in 10.0 mi SE 8.1 mph 12.7 mph N/A   Overcast
5:55 PM 73.2 °F 71.6 °F 95% 29.95 in 7.0 mi ESE 10.4 mph - N/A   Overcast
6:15 PM 72.3 °F 71.2 °F 96% 29.96 in 7.0 mi ESE 9.2 mph - N/A   Overcast
6:35 PM 71.8 °F 71.2 °F 98% 29.96 in 7.0 mi ESE 9.2 mph - N/A   Overcast
6:55 PM 71.6 °F 71.4 °F 99% 29.97 in 7.0 mi ESE 9.2 mph - N/A   Overcast
7:15 PM 71.6 °F 71.6 °F 100% 29.97 in 7.0 mi ESE 11.5 mph - N/A   Overcast
7:35 PM 71.4 °F 71.4 °F 100% 29.98 in 5.0 mi ESE 10.4 mph - N/A   Overcast
7:55 PM 71.1 °F 71.1 °F 100% 29.98 in 5.0 mi ESE 9.2 mph - N/A   Overcast
8:15 PM 71.1 °F 71.1 °F 100% 29.98 in 5.0 mi ESE 6.9 mph - N/A   Overcast
8:35 PM 71.2 °F 71.2 °F 100% 29.98 in 5.0 mi ESE 8.1 mph - N/A   Overcast
8:55 PM 71.6 °F 71.6 °F 100% 29.98 in 7.0 mi SE 6.9 mph - N/A   Overcast
9:15 PM 71.6 °F 71.6 °F 100% 29.99 in 7.0 mi SE 9.2 mph - N/A   Overcast
9:35 PM 72.0 °F 71.8 °F 99% 30.00 in 7.0 mi SE 8.1 mph - N/A   Overcast
9:55 PM 72.0 °F 71.8 °F 99% 30.00 in 7.0 mi SE 9.2 mph - N/A   Overcast
10:15 PM 72.1 °F 71.8 °F 99% 30.01 in 7.0 mi SE 9.2 mph - N/A   Overcast
10:35 PM 72.1 °F 71.8 °F 99% 30.01 in 7.0 mi SE 9.2 mph - N/A   Overcast
10:55 PM 72.1 °F 71.8 °F 99% 30.00 in 7.0 mi SE 10.4 mph - N/A   Overcast
11:15 PM 72.0 °F 71.8 °F 99% 30.00 in 7.0 mi SSE 10.4 mph - N/A   Overcast
11:35 PM 72.0 °F 71.8 °F 99% 29.99 in 7.0 mi SE 13.8 mph - N/A   Overcast
11:55 PM 72.0 °F 72.0 °F 100% 29.99 in 7.0 mi SE 11.5 mph - N/A   Overcast